Location: Carabito
(9.8355°N, 67.9249°W)
Time: 11:25:39
(UTC+00:00)

Meteor 1-11 - Pass Details

Date: 23 May 2024
Orbit: 842 x 883 km, 81.2° (Epoch: 20 June)

Event Time Altitude Azimuth Distance (km) Brightness Sun altitude
Exits shadow 08:24:22 31° 175° (S) 1,449 5.2 -24.5°
Maximum altitude 08:27:09 77° 94° (E) 879 4.3 -23.9°
Drops below altitude 10° 08:32:48 10° 9° (N) 2,495 7.1 -22.7°
Sets 08:35:15 0° 8° (N) 3,438 7.9 -22.1°
